• In Hungary
  • List of Countries
  • For 7 days
  • Water Temperature
  • Satellite Maps
  • Weather Map
  • News
  • Weather Widgets
  • user-avatar
    Login

    Hourly Weather Zborov

    Today, 18 September, Tuesday

    Time Temperature Precipitation Wind Pressure Humidity
    00:00 +14°C° 0 mm 2 mps 737 mmHg 77%
    01:00 +13°C° 0 mm 2 mps 737 mmHg 79%
    02:00 +13°C° 0 mm 1 mps 736 mmHg 81%
    03:00 +13°C° 0 mm 1 mps 736 mmHg 82%
    04:00 +13°C° 0 mm 1 mps 736 mmHg 83%
    05:00 +12°C° 0 mm 1 mps 736 mmHg 83%
    06:00 +14°C° 0 mm 1 mps 736 mmHg 80%
    07:00 +15°C° 0 mm 1 mps 736 mmHg 78%
    08:00 +16°C° 0 mm 1 mps 737 mmHg 73%
    09:00 +19°C° 0 mm 1 mps 737 mmHg 68%
    10:00 +20°C° 0 mm 1 mps 737 mmHg 62%
    11:00 +21°C° 0 mm 2 mps 737 mmHg 57%
    12:00 +23°C° 0 mm 1 mps 737 mmHg 55%
    13:00 +24°C° 0 mm 1 mps 737 mmHg 52%
    14:00 +24°C° 0 mm 1 mps 737 mmHg 49%
    15:00 +24°C° 0 mm 1 mps 736 mmHg 52%
    16:00 +24°C° 0 mm 1 mps 736 mmHg 55%
    17:00 +24°C° 0 mm 1 mps 736 mmHg 58%
    18:00 +22°C° 0 mm 1 mps 736 mmHg 62%
    19:00 +20°C° 0 mm 1 mps 736 mmHg 66%
    20:00 +18°C° 0 mm 1 mps 736 mmHg 70%
    21:00 +18°C° 0 mm 1 mps 736 mmHg 71%
    22:00 +16°C° 0 mm 1 mps 736 mmHg 73%
    23:00 +16°C° 0 mm 2 mps 736 mmHg 74%

    Tomorrow, 19 September, Wednesday

    Time Temperature Precipitation Wind Pressure Humidity
    00:00 +15°C° 0 mm 1 mps 736 mmHg 74%
    01:00 +15°C° 0 mm 1 mps 736 mmHg 75%
    02:00 +15°C° 0 mm 1 mps 736 mmHg 75%
    03:00 +14°C° 0 mm 1 mps 736 mmHg 76%
    04:00 +14°C° 0 mm 1 mps 736 mmHg 77%
    05:00 +14°C° 0 mm 1 mps 736 mmHg 78%
    06:00 +15°C° 0 mm 1 mps 736 mmHg 76%
    07:00 +16°C° 0 mm 2 mps 736 mmHg 74%
    08:00 +17°C° 0 mm 2 mps 736 mmHg 72%
    09:00 +19°C° 0 mm 2 mps 736 mmHg 66%
    10:00 +20°C° 0 mm 2 mps 736 mmHg 60%
    11:00 +23°C° 0 mm 2 mps 737 mmHg 54%
    12:00 +24°C° 0 mm 2 mps 737 mmHg 51%
    13:00 +25°C° 0 mm 2 mps 736 mmHg 48%
    14:00 +26°C° 0 mm 2 mps 736 mmHg 44%
    15:00 +26°C° 0 mm 1 mps 736 mmHg 48%
    16:00 +25°C° 0 mm 1 mps 736 mmHg 51%
    17:00 +25°C° 0 mm 1 mps 736 mmHg 54%
    18:00 +23°C° 0 mm 1 mps 736 mmHg 57%
    19:00 +21°C° 0 mm 1 mps 736 mmHg 61%
    20:00 +19°C° 0 mm 1 mps 736 mmHg 65%
    21:00 +19°C° 0 mm 1 mps 736 mmHg 66%
    22:00 +18°C° 0 mm 1 mps 736 mmHg 67%
    23:00 +18°C° 0 mm 1 mps 736 mmHg 68%

    Day after tomorrow, 20 September, Thursday

    Time Temperature Precipitation Wind Pressure Humidity
    00:00 +16°C° 0 mm 1 mps 736 mmHg 70%
    01:00 +16°C° 0 mm 1 mps 736 mmHg 71%
    02:00 +16°C° 0 mm 1 mps 736 mmHg 73%
    03:00 +14°C° 0 mm 0 mps 736 mmHg 74%
    04:00 +14°C° 0 mm 0 mps 735 mmHg 75%
    05:00 +14°C° 0 mm 0 mps 735 mmHg 77%
    06:00 +15°C° 0 mm 0 mps 736 mmHg 74%
    07:00 +16°C° 0 mm 0 mps 736 mmHg 70%
    08:00 +17°C° 0 mm 0 mps 736 mmHg 67%
    09:00 +21°C° 0 mm 1 mps 736 mmHg 62%
    10:00 +23°C° 0 mm 1 mps 736 mmHg 57%
    11:00 +24°C° 0 mm 1 mps 736 mmHg 52%
    12:00 +25°C° 0 mm 1 mps 736 mmHg 49%
    13:00 +26°C° 0 mm 1 mps 736 mmHg 47%
    14:00 +27°C° 0 mm 1 mps 736 mmHg 44%
    15:00 +26°C° 0 mm 1 mps 736 mmHg 47%
    16:00 +26°C° 0 mm 1 mps 735 mmHg 50%
    17:00 +25°C° 0 mm 1 mps 735 mmHg 53%
    18:00 +23°C° 0 mm 1 mps 735 mmHg 56%
    19:00 +22°C° 0 mm 1 mps 735 mmHg 60%
    20:00 +20°C° 0 mm 1 mps 735 mmHg 63%
    21:00 +19°C° 0 mm 1 mps 735 mmHg 63%
    22:00 +19°C° 0 mm 1 mps 735 mmHg 64%
    23:00 +18°C° 0 mm 1 mps 734 mmHg 64%

    21 September, Friday

    Time Temperature Precipitation Wind Pressure Humidity
    00:00 +18°C° 0 mm 1 mps 734 mmHg 64%
    01:00 +16°C° 0 mm 1 mps 734 mmHg 64%
    02:00 +16°C° 0 mm 1 mps 734 mmHg 64%
    03:00 +16°C° 0 mm 2 mps 734 mmHg 64%
    04:00 +15°C° 0 mm 2 mps 734 mmHg 64%
    05:00 +15°C° 0 mm 2 mps 734 mmHg 64%
    06:00 +16°C° 0 mm 2 mps 734 mmHg 64%
    07:00 +16°C° 0 mm 2 mps 734 mmHg 63%
    08:00 +17°C° 0 mm 3 mps 734 mmHg 63%
    09:00 +19°C° 0 mm 3 mps 734 mmHg 58%
    10:00 +21°C° 0 mm 3 mps 734 mmHg 54%
    11:00 +23°C° 0 mm 4 mps 734 mmHg 50%
    12:00 +25°C° 0 mm 3 mps 733 mmHg 48%
    13:00 +25°C° 0 mm 3 mps 733 mmHg 47%
    14:00 +26°C° 0 mm 3 mps 733 mmHg 45%
    15:00 +26°C° 0 mm 3 mps 732 mmHg 48%
    16:00 +25°C° 0 mm 3 mps 732 mmHg 52%
    17:00 +25°C° 0 mm 2 mps 731 mmHg 55%
    18:00 +23°C° 0 mm 2 mps 731 mmHg 57%
    19:00 +20°C° 0 mm 2 mps 731 mmHg 59%
    20:00 +19°C° 0 mm 3 mps 731 mmHg 61%
    21:00 +18°C° 0 mm 3 mps 731 mmHg 60%
    22:00 +18°C° 0 mm 3 mps 730 mmHg 59%
    23:00 +17°C° 0 mm 3 mps 730 mmHg 58%

    22 September, Saturday

    Time Temperature Precipitation Wind Pressure Humidity
    00:00 +17°C° 0 mm 2 mps 730 mmHg 60%
    01:00 +16°C° 0 mm 2 mps 730 mmHg 61%
    02:00 +16°C° 0 mm 2 mps 729 mmHg 63%
    03:00 +16°C° 0 mm 2 mps 729 mmHg 64%
    04:00 +15°C° 0 mm 2 mps 729 mmHg 65%
    05:00 +14°C° 0 mm 3 mps 729 mmHg 67%
    06:00 +16°C° 0 mm 3 mps 729 mmHg 66%
    07:00 +17°C° 0 mm 3 mps 729 mmHg 64%
    08:00 +18°C° 0 mm 3 mps 729 mmHg 63%
    09:00 +19°C° 0 mm 4 mps 730 mmHg 62%
    10:00 +20°C° 0 mm 6 mps 730 mmHg 61%
    11:00 +20°C° 0 mm 7 mps 730 mmHg 60%
    12:00 +18°C° 0 mm 7 mps 730 mmHg 62%
    13:00 +18°C° 0 mm 7 mps 730 mmHg 63%
    14:00 +17°C° 0 mm 6 mps 730 mmHg 65%
    15:00 +15°C° 0.7 mm 7 mps 731 mmHg 72%
    16:00 +12°C° 0.7 mm 7 mps 731 mmHg 79%
    17:00 +10°C° 0.7 mm 8 mps 731 mmHg 85%
    18:00 +9°C° 2.3 mm 7 mps 732 mmHg 87%
    19:00 +8°C° 2.3 mm 7 mps 732 mmHg 88%
    20:00 +7°C° 2.3 mm 6 mps 733 mmHg 90%
    21:00 +7°C° 0.6 mm 6 mps 733 mmHg 90%
    22:00 +8°C° 0.6 mm 5 mps 733 mmHg 89%
    23:00 +8°C° 0.6 mm 5 mps 734 mmHg 89%

    23 September, Sunday

    Time Temperature Precipitation Wind Pressure Humidity
    00:00 +7°C° 0 mm 5 mps 734 mmHg 89%
    01:00 +7°C° 0 mm 5 mps 734 mmHg 89%
    02:00 +6°C° 0 mm 5 mps 734 mmHg 90%
    03:00 +6°C° 0 mm 5 mps 734 mmHg 90%
    04:00 +6°C° 0 mm 5 mps 734 mmHg 91%
    05:00 +5°C° 0 mm 4 mps 734 mmHg 91%
    06:00 +6°C° 0 mm 5 mps 734 mmHg 89%
    07:00 +7°C° 0 mm 5 mps 735 mmHg 86%
    08:00 +7°C° 0 mm 5 mps 735 mmHg 84%
    09:00 +9°C° 0 mm 5 mps 735 mmHg 76%
    10:00 +10°C° 0 mm 5 mps 735 mmHg 69%
    11:00 +13°C° 0 mm 6 mps 735 mmHg 62%
    12:00 +14°C° 0.1 mm 6 mps 734 mmHg 60%
    13:00 +14°C° 0.1 mm 6 mps 734 mmHg 58%
    14:00 +15°C° 0.1 mm 6 mps 734 mmHg 56%
    15:00 +14°C° 0 mm 5 mps 734 mmHg 58%
    16:00 +14°C° 0 mm 4 mps 733 mmHg 61%
    17:00 +14°C° 0 mm 3 mps 733 mmHg 63%
    18:00 +12°C° 0 mm 3 mps 733 mmHg 68%
    19:00 +12°C° 0 mm 2 mps 733 mmHg 72%
    20:00 +9°C° 0 mm 2 mps 733 mmHg 77%
    21:00 +9°C° 0 mm 2 mps 732 mmHg 77%
    22:00 +8°C° 0 mm 2 mps 732 mmHg 78%
    23:00 +8°C° 0 mm 2 mps 732 mmHg 78%
    Show more